timestamp,surface_pressure_avg,surface_temp_avg,battery_voltage,lat,long
2022-07-12 00:09:00+00:00,311.4948,16.81,12.09,47.84626,-54.09684
2022-07-12 00:19:00+00:00,302.058,16.87,12.09,47.84626,-54.09684
2022-07-12 00:29:00+00:00,292.1514,16.9,12.09,47.84626,-54.09684
2022-07-12 00:39:00+00:00,284.9363,16.9,12.09,47.84626,-54.09684
2022-07-12 00:49:00+00:00,276.5598,16.89,12.09,47.84626,-54.09684
2022-07-12 00:59:00+00:00,266.6598,16.88,12.09,47.84626,-54.09684
2022-07-12 01:09:00+00:00,258.4347,16.86,12.09,47.84626,-54.09684
2022-07-12 01:19:00+00:00,251.2798,16.8,12.09,47.84626,-54.09684
2022-07-12 01:29:00+00:00,246.4197,16.8,12.09,47.84626,-54.09684
2022-07-12 01:39:00+00:00,240.0531,16.8,12.09,47.84626,-54.09684
2022-07-12 01:49:00+00:00,235.2381,16.8,12.09,47.84626,-54.09684
2022-07-12 01:59:00+00:00,230.6581,16.8,12.09,47.84626,-54.09684
2022-07-12 02:09:00+00:00,227.2214,16.79,12.09,47.84626,-54.09684
2022-07-12 02:19:00+00:00,220.8014,16.79,12.09,47.84626,-54.09684
2022-07-12 02:29:00+00:00,214.4748,16.79,12.09,47.84626,-54.09684
2022-07-12 02:39:00+00:00,210.8098,16.79,12.09,47.84626,-54.09684
2022-07-12 02:49:00+00:00,210.3348,16.79,12.09,47.84626,-54.09684
2022-07-12 02:59:00+00:00,204.5331,16.8,12.09,47.84626,-54.09684
2022-07-12 03:09:00+00:00,197.8698,16.79,12.09,47.84626,-54.09684
2022-07-12 03:19:00+00:00,195.2081,16.78,12.09,47.84626,-54.09684
2022-07-12 03:29:00+00:00,194.5131,16.72,12.09,47.84626,-54.09684
2022-07-12 03:39:00+00:00,191.6981,16.7,12.09,47.84626,-54.09684
2022-07-12 03:49:00+00:00,188.4748,16.7,12.09,47.84626,-54.09684
2022-07-12 03:59:00+00:00,187.9331,16.7,12.09,47.84626,-54.09684
2022-07-12 04:09:00+00:00,186.3881,16.7,12.09,47.84626,-54.09684
2022-07-12 04:19:00+00:00,184.8931,16.7,12.09,47.84626,-54.09684
2022-07-12 04:29:00+00:00,187.4181,16.7,12.09,47.84626,-54.09684
2022-07-12 04:39:00+00:00,190.6898,16.7,12.09,47.84626,-54.09684
2022-07-12 04:49:00+00:00,190.3765,16.7,12.09,47.84626,-54.09684
2022-07-12 04:59:00+00:00,190.6381,16.7,12.09,47.84626,-54.09684
2022-07-12 05:09:00+00:00,193.5914,16.7,12.09,47.84626,-54.09684
2022-07-12 05:19:00+00:00,194.5031,16.7,12.01,47.84626,-54.09684
2022-07-12 05:29:00+00:00,194.0015,16.7,12.01,47.84626,-54.09684
2022-07-12 05:39:00+00:00,196.8598,16.7,12.01,47.84626,-54.09684
2022-07-12 05:49:00+00:00,199.3114,16.7,12.01,47.84626,-54.09684
2022-07-12 05:59:00+00:00,200.7148,16.7,12.01,47.84626,-54.09684
2022-07-12 06:09:00+00:00,207.7781,16.7,12.01,47.84626,-54.09684
2022-07-12 06:19:00+00:00,215.3965,16.7,12.01,47.84626,-54.09684
2022-07-12 06:29:00+00:00,216.9014,16.7,12.01,47.84626,-54.09684
2022-07-12 06:39:00+00:00,222.308,16.7,12.01,47.84626,-54.09684
2022-07-12 06:49:00+00:00,229.1964,16.7,12.01,47.84626,-54.09684
2022-07-12 06:59:00+00:00,231.7897,16.7,12.01,47.84626,-54.09684
2022-07-12 07:09:00+00:00,236.7281,16.7,12.01,47.84626,-54.09684
2022-07-12 07:19:00+00:00,247.8231,16.7,12.01,47.84626,-54.09684
2022-07-12 07:29:00+00:00,254.9647,16.69,12.01,47.84626,-54.09684
2022-07-12 07:39:00+00:00,258.5181,16.69,12.01,47.84626,-54.09684
2022-07-12 07:49:00+00:00,266.7131,16.69,12.01,47.84626,-54.09684
2022-07-12 07:59:00+00:00,278.6597,16.67,12.01,47.84626,-54.09684
2022-07-12 08:09:00+00:00,285.4014,16.63,12.01,47.84626,-54.09684
2022-07-12 08:19:01+00:00,290.0447,16.66,12.01,47.84626,-54.09684
2022-07-12 08:29:01+00:00,297.3231,16.6,12.01,47.84626,-54.09684
2022-07-12 08:39:01+00:00,305.6697,16.6,12.01,47.84626,-54.09684
2022-07-12 08:49:01+00:00,309.288,16.6,12.01,47.84626,-54.09684
2022-07-12 08:59:01+00:00,314.9297,16.6,12.01,47.84626,-54.09684
2022-07-12 09:09:01+00:00,322.393,16.62,12.01,47.84626,-54.09684
2022-07-12 09:19:01+00:00,326.6063,16.68,12.01,47.84626,-54.09684
2022-07-12 09:29:01+00:00,327.0713,16.7,12.01,47.84626,-54.09684
2022-07-12 09:39:01+00:00,329.2346,16.7,12.01,47.84626,-54.09684
2022-07-12 09:49:01+00:00,331.9397,16.7,12.01,47.84626,-54.09684
2022-07-12 09:59:01+00:00,333.3897,16.7,12.01,47.84626,-54.09684
2022-07-12 10:09:01+00:00,331.1796,16.7,12.01,47.84626,-54.09684
2022-07-12 10:19:01+00:00,329.7363,16.71,12.09,47.84626,-54.09684
2022-07-12 10:29:01+00:00,329.1462,16.75,12.09,47.84626,-54.09684
2022-07-12 10:39:01+00:00,330.1796,16.7,12.09,47.84626,-54.09684
2022-07-12 10:49:01+00:00,327.0947,16.7,12.09,47.84626,-54.09684
2022-07-12 10:59:01+00:00,326.0397,16.75,12.09,47.84626,-54.09684
2022-07-12 11:09:01+00:00,327.0547,16.79,12.09,47.84626,-54.09684
2022-07-12 11:19:01+00:00,326.8913,16.79,12.09,47.84626,-54.09684
2022-07-12 11:29:01+00:00,322.3413,16.8,12.09,47.84626,-54.09684
2022-07-12 11:39:01+00:00,320.313,16.8,12.09,47.84626,-54.09684
2022-07-12 11:49:01+00:00,315.2047,16.79,12.09,47.84626,-54.09684
2022-07-12 11:59:01+00:00,307.573,16.71,12.09,47.84626,-54.09684
2022-07-12 12:09:01+00:00,301.683,16.7,12.09,47.84626,-54.09684
2022-07-12 12:19:01+00:00,296.353,16.7,12.33,47.84626,-54.09684
2022-07-12 12:29:01+00:00,288.8563,16.7,12.33,47.84626,-54.09684
2022-07-12 12:39:01+00:00,282.5131,16.7,12.33,47.84626,-54.09684
2022-07-12 12:49:01+00:00,278.4781,16.7,12.33,47.84626,-54.09684
2022-07-12 12:59:01+00:00,270.4597,16.73,12.33,47.84626,-54.09684
2022-07-12 13:09:01+00:00,260.3331,16.78,12.33,47.84626,-54.09684
2022-07-12 13:19:00+00:00,251.9714,16.8,12.33,47.84626,-54.09684
2022-07-12 13:29:00+00:00,243.9864,16.8,12.33,47.84626,-54.09684
2022-07-12 13:39:00+00:00,232.6414,16.8,12.33,47.84626,-54.09684
2022-07-12 13:49:00+00:00,221.6981,16.87,12.33,47.84626,-54.09684
2022-07-12 13:59:00+00:00,216.3848,16.85,12.33,47.84626,-54.09684
2022-07-12 14:09:00+00:00,209.2181,16.82,12.33,47.84626,-54.09684
2022-07-12 14:19:00+00:00,199.9598,16.88,12.41,47.84626,-54.09684
2022-07-12 14:29:00+00:00,198.1398,16.89,12.41,47.84626,-54.09684
2022-07-12 14:39:00+00:00,198.8897,16.86,12.41,47.84626,-54.09684
2022-07-12 14:49:00+00:00,194.5998,16.9,12.41,47.84626,-54.09684
2022-07-12 14:59:00+00:00,190.6381,16.91,12.41,47.84626,-54.09684
2022-07-12 15:09:00+00:00,189.9231,16.97,12.41,47.84626,-54.09684
2022-07-12 15:19:00+00:00,186.6614,17.0,12.41,47.84626,-54.09684
2022-07-12 15:29:00+00:00,180.6614,17.09,12.41,47.84626,-54.09684
2022-07-12 15:39:00+00:00,181.0898,17.06,12.41,47.84626,-54.09684
2022-07-12 15:49:00+00:00,183.1731,17.0,12.41,47.84626,-54.09684
2022-07-12 15:59:00+00:00,180.0531,17.0,12.41,47.84626,-54.09684
2022-07-12 16:09:00+00:00,179.6598,17.0,12.41,47.84626,-54.09684
2022-07-12 16:19:01+00:00,182.7765,16.99,12.41,47.84626,-54.09684
2022-07-12 16:29:01+00:00,185.2232,16.9,12.41,47.84626,-54.09684
2022-07-12 16:39:01+00:00,184.8665,16.9,12.41,47.84626,-54.09684
2022-07-12 16:49:01+00:00,185.2164,16.9,12.41,47.84626,-54.09684
2022-07-12 16:59:01+00:00,188.0047,16.9,12.41,47.84626,-54.09684
2022-07-12 17:09:01+00:00,189.6515,16.98,12.41,47.84626,-54.09684
2022-07-12 17:19:01+00:00,190.3015,17.0,12.33,47.84626,-54.09684
2022-07-12 17:29:01+00:00,194.0365,17.0,12.33,47.84626,-54.09684
2022-07-12 17:39:01+00:00,199.4348,16.93,12.33,47.84626,-54.09684
2022-07-12 17:49:01+00:00,204.1781,17.03,12.33,47.84626,-54.09684
2022-07-12 17:59:01+00:00,208.8247,17.1,12.33,47.84626,-54.09684
2022-07-12 18:09:01+00:00,213.5614,17.0,12.33,47.84626,-54.09684
2022-07-12 18:19:01+00:00,218.2997,17.12,12.25,47.84626,-54.09684
2022-07-12 18:29:01+00:00,223.7198,17.1,12.25,47.84626,-54.09684
2022-07-12 18:39:01+00:00,230.4831,17.0,12.25,47.84626,-54.09684
2022-07-12 18:49:01+00:00,235.6381,17.0,12.25,47.84626,-54.09684
2022-07-12 18:59:01+00:00,243.1714,17.0,12.25,47.84626,-54.09684
2022-07-12 19:09:01+00:00,254.8547,17.0,12.25,47.84626,-54.09684
2022-07-12 19:19:00+00:00,262.6931,16.98,12.17,47.84626,-54.09684
2022-07-12 19:29:00+00:00,267.7481,16.98,12.17,47.84626,-54.09684
2022-07-12 19:39:00+00:00,276.1697,17.0,12.17,47.84626,-54.09684
2022-07-12 19:49:00+00:00,289.9097,17.0,12.17,47.84626,-54.09684
2022-07-12 19:59:00+00:00,297.728,17.0,12.17,47.84626,-54.09684
2022-07-12 20:09:00+00:00,302.2131,17.0,12.17,47.84626,-54.09684
2022-07-12 20:19:01+00:00,310.8164,17.0,12.17,47.84626,-54.09684
2022-07-12 20:29:01+00:00,321.8264,16.9,12.17,47.84626,-54.09684
2022-07-12 20:39:01+00:00,327.903,16.9,12.17,47.84626,-54.09684
2022-07-12 20:49:01+00:00,333.5997,16.97,12.17,47.84626,-54.09684
2022-07-12 20:59:01+00:00,342.0063,16.99,12.17,47.84626,-54.09684
2022-07-12 21:09:01+00:00,352.0312,17.0,12.17,47.84626,-54.09684
2022-07-12 21:19:00+00:00,357.8696,17.0,12.17,47.84626,-54.09684
2022-07-12 21:29:00+00:00,361.1014,16.99,12.17,47.84626,-54.09684
2022-07-12 21:39:00+00:00,366.8162,17.0,12.17,47.84626,-54.09684
2022-07-12 21:49:00+00:00,371.8796,16.99,12.17,47.84626,-54.09684
2022-07-12 21:59:00+00:00,372.6246,16.94,12.17,47.84626,-54.09684
2022-07-12 22:09:00+00:00,371.6429,16.93,12.17,47.84626,-54.09684
2022-07-12 22:19:01+00:00,373.5863,16.92,12.09,47.84626,-54.09684
2022-07-12 22:29:01+00:00,375.4012,16.9,12.09,47.84626,-54.09684
2022-07-12 22:39:01+00:00,374.7162,16.9,12.09,47.84626,-54.09684
2022-07-12 22:49:01+00:00,376.6663,16.92,12.09,47.84626,-54.09684
2022-07-12 22:59:01+00:00,378.1564,16.9,12.09,47.84626,-54.09684
2022-07-12 23:09:01+00:00,376.6179,16.9,12.09,47.84626,-54.09684
2022-07-12 23:19:00+00:00,374.5079,16.9,12.09,47.84626,-54.09684
2022-07-12 23:29:00+00:00,374.7796,16.9,12.09,47.84626,-54.09684
2022-07-12 23:39:00+00:00,371.6063,16.9,12.09,47.84626,-54.09684
2022-07-12 23:49:00+00:00,365.3395,16.9,12.09,47.84626,-54.09684
2022-07-12 23:59:00+00:00,361.6996,16.97,12.09,47.84626,-54.09684
